GSAT0221 (GALILEO 25)

Last updated on Fri Jun 19 2026 17:09:21 GMT+0000 (Coordinated Universal Time)

1 43564U 18060A 26168.65155293 -.00000090 00000+0 00000+0 0 9994 2 43564 57.1692 341.7677 0002595 303.5364 56.4325 1.70475954 49172
UTC large
Height (km)
Speed (km/s)
/
Latitude / Longitude
Inclination (degrees)
Orbital Period (minutes)
Azimuth
Elevation
Range (km)
Doppler Factor

Next 0 passes for location: London (51.5072 / 0.1276)

No passes found over London.
GSAT0221 (GALILEO 25)